Weather History for KLFT - July, 2014

Change the Weather History Date:

Friday, July 4, 2014

  Actual Average Record
Temperature  
Mean Temperature 81 °F 83 °F  
Max Temperature 90 °F 92 °F 100 °F (1921)
Min Temperature 71 °F 75 °F 59 °F (1924)
Cooling Degree Days 16 18  
Month to date cooling degree days 72 72  
Year to date cooling degree days 1048 1184  
Since 1 June cooling degree days 579 570  
Growing Degree Days 31 (Base 50)    
Moisture  
Dew Point 67 °F    
Average Humidity 64    
Maximum Humidity 87    
Minimum Humidity 41    
Precipitation  
Precipitation 0.00 in 0.24 in 2.42 in (1920)
Month to date precipitation 0.00 0.96  
Year to date precipitation 31.63 30.66  
Sea Level Pressure  
Sea Level Pressure 30.15 in    
Wind  
Wind Speed 7 mph (NE)    
Max Wind Speed 13 mph    
Max Gust Speed 15 mph    
Visibility 10 miles    
Events      
T = Trace of Precipitation, MM = Missing Value Source: NWS Daily Summary

Daily Weather History Graph

Daily Weather History Graph

Search for Another Location

Airport or City:

Trip Planner

Search our weather history database for the weather conditions in past years. The results will help you decide how hot, cold, wet, or windy it might be!

Date:

Astronomy

Jul. 04, 2014 Rise Set
Actual Time 6:11 AM CDT 8:13 PM CDT
Civil Twilight 5:43 AM CDT 8:40 PM CDT
Nautical Twilight 5:10 AM CDT 9:13 PM CDT
Astronomical Twilight 4:35 AM CDT 9:49 PM CDT
Moon 12:37 PM CDT (7/4) 12:04 AM CDT (7/4)
Length of Visible Light 14h 56m
Length of Day
14h 02m
Waxing Crescent, 42% of the Moon is Illuminated
Jul 4
Waxing Crescent
Jul 5
First Quarter
Jul 12
Full
Jul 18
Last Quarter
Jul 26
New

Hourly Weather History & Observations

Time (CDT) Temp. Heat Index Dew Point Humidity Pressure Visibility Wind Dir Wind Speed Gust Speed Precip Events Conditions
12:53 AM 78.1 °F - 71.1 °F 79% 30.12 in 10.0 mi Calm Calm - N/A   Partly Cloudy
1:53 AM 78.1 °F - 71.1 °F 79% 30.10 in 10.0 mi North 6.9 mph - N/A   Clear
2:53 AM 75.9 °F - 72.0 °F 87% 30.10 in 10.0 mi NNE 6.9 mph - N/A   Clear
3:53 AM 75.0 °F - 72.0 °F 90% 30.11 in 10.0 mi NE 4.6 mph - N/A   Clear
4:53 AM 75.0 °F - 71.1 °F 87% 30.12 in 10.0 mi NE 8.1 mph - N/A   Clear
5:53 AM 73.9 °F - 69.1 °F 85% 30.14 in 10.0 mi NE 6.9 mph - N/A   Clear
6:53 AM 73.9 °F - 69.1 °F 85% 30.16 in 10.0 mi NNE 6.9 mph - N/A   Clear
7:53 AM 75.9 °F - 68.0 °F 76% 30.18 in 10.0 mi NE 4.6 mph - N/A   Clear
8:53 AM 79.0 °F - 66.9 °F 66% 30.19 in 10.0 mi ENE 8.1 mph - N/A   Clear
9:53 AM 82.0 °F 84.9 °F 68.0 °F 62% 30.19 in 10.0 mi ENE 5.8 mph - N/A   Clear
10:53 AM 84.0 °F 86.5 °F 66.9 °F 56% 30.19 in 10.0 mi NE 8.1 mph - N/A   Partly Cloudy
11:53 AM 84.9 °F 87.1 °F 66.0 °F 53% 30.19 in 10.0 mi ENE 6.9 mph - N/A   Partly Cloudy
12:53 PM 86.0 °F 88.2 °F 66.0 °F 51% 30.19 in 10.0 mi NE 9.2 mph - N/A   Overcast
1:53 PM 88.0 °F 90.7 °F 66.9 °F 49% 30.17 in 10.0 mi NNE 4.6 mph - N/A   Clear
2:53 PM 89.1 °F 89.3 °F 62.1 °F 40% 30.17 in 10.0 mi NNE 6.9 mph - N/A   Clear
3:53 PM 89.1 °F 91.0 °F 64.9 °F 45% 30.15 in 10.0 mi NNE 5.8 mph - N/A   Clear
4:53 PM 89.1 °F 91.0 °F 64.9 °F 45% 30.14 in 10.0 mi NE 8.1 mph - N/A   Clear
5:53 PM 88.0 °F 89.6 °F 64.9 °F 46% 30.14 in 10.0 mi North 8.1 mph - N/A   Clear
6:53 PM 86.0 °F 86.3 °F 62.1 °F 44% 30.13 in 10.0 mi NNE 8.1 mph - N/A   Clear
7:53 PM 82.0 °F 84.1 °F 66.0 °F 58% 30.13 in 10.0 mi NNE 4.6 mph - N/A   Clear
8:53 PM 79.0 °F - 66.9 °F 66% 30.14 in 10.0 mi North 6.9 mph - N/A   Clear
9:53 PM 75.0 °F - 66.0 °F 73% 30.14 in 10.0 mi North 6.9 mph - N/A   Clear
10:53 PM 73.9 °F - 66.0 °F 76% 30.16 in 10.0 mi NNE 5.8 mph - N/A   Clear
11:53 PM 73.0 °F - 66.9 °F 81% 30.17 in 10.0 mi NE 3.5 mph - N/A   Clear